Wind_Speed
32 33 34 33 33 32 32 34 35 36 36 35 35 35 35 35 35 34 34 35 36 37 38 40 41 42 42 42 42 43 44 45 45 46 46 47 48 48 48 48 48 48 48
31 30 30 30 30 31 32 33 35 35 35 34 34 34 34 34 35 36 36 37 38 39 40 41 42 43 44 45 46 48 49 50 50 51 52 53 54 55 55 54 54 54 54
28 27 26 28 29 30 31 33 35 36 35 35 35 35 36 36 37 38 39 40 41 42 44 45 46 47 48 49 50 52 54 55 56 57 58 58 59 59 60 60 59 59 60
26 26 27 29 31 32 34 36 37 37 36 36 36 37 38 39 40 41 42 43 45 46 47 49 50 51 53 55 56 58 60 62 63 64 65 66 66 66 66 66 66 66 66
26 27 30 32 34 35 37 40 40 39 37 37 37 39 39 40 41 43 44 46 48 50 52 54 56 58 60 62 64 65 67 68 69 70 71 72 73 73 73 73 72 72 72
28 31 33 35 37 38 40 42 42 40 39 38 38 39 41 42 44 46 48 50 53 55 58 60 62 64 66 68 69 70 71 72 73 74 75 76 77 78 78 79 78 78 78
31 34 36 38 39 41 42 43 42 42 41 39 39 40 43 46 47 50 53 56 58 61 64 66 68 69 70 72 73 74 76 77 78 79 81 81 82 82 83 84 84 85 85
34 37 39 41 42 43 43 42 40 40 41 42 43 44 46 48 52 55 57 60 63 65 67 69 70 72 73 74 75 76 77 78 80 81 83 85 86 87 88 89 90 91 92
37 39 41 42 43 42 40 39 40 41 43 46 48 51 53 54 55 56 59 62 65 67 68 70 71 73 74 75 75 76 78 80 83 85 87 90 92 93 95 96 97 97 98
39 41 41 42 41 39 39 41 43 45 47 50 54 57 61 63 65 65 63 63 65 67 68 70 72 73 75 77 79 81 84 86 89 91 93 95 97 99 101 102 103 103 103
40 41 41 40 40 41 42 44 47 49 52 55 58 61 64 67 71 74 73 71 68 67 68 70 74 78 81 84 87 90 93 95 98 100 101 103 104 105 106 107 108 108 108
40 40 40 40 42 44 45 47 50 54 57 60 62 64 66 68 70 72 74 75 74 73 73 76 81 86 91 94 98 101 103 106 107 109 110 110 110 110 110 110 110 109 109
40 40 40 42 44 46 48 50 54 58 61 63 65 67 68 70 71 72 74 75 76 78 81 85 90 96 100 104 107 111 113 115 115 115 114 113 111 109 106 105 104 103 103
40 41 42 44 46 48 51 54 58 61 63 65 67 68 68 69 71 74 78 82 83 84 86 91 97 103 109 113 116 118 119 118 116 113 111 107 103 100 96 93 92 91 92
41 42 44 47 49 51 54 58 62 65 67 68 68 68 69 71 75 79 84 90 95 96 95 98 104 110 115 119 119 118 115 110 104 100 96 92 89 86 84 83 81 80 81
43 45 47 50 52 55 58 62 66 68 69 69 69 70 72 76 80 85 91 97 103 108 108 107 112 116 118 117 113 108 102 94 88 84 82 80 79 79 79 77 76 74 74
45 48 50 53 55 59 63 66 69 70 70 69 71 73 77 82 87 92 97 102 108 114 119 118 117 114 109 103 96 90 85 82 79 78 79 79 79 77 74 73 72 71 71
48 50 53 56 59 63 67 70 70 70 69 70 73 77 82 88 92 98 103 109 114 119 123 121 112 101 91 83 78 75 76 77 79 79 78 76 73 70 69 68 67 67 67
51 53 56 60 64 67 70 70 69 68 70 73 78 84 89 94 99 105 111 116 120 119 115 109 99 88 80 76 74 73 74 75 74 72 68 66 64 63 61 61 61 61 61
53 56 60 64 67 69 69 68 67 69 73 79 85 90 96 102 107 113 117 119 117 111 102 95 88 83 78 75 74 72 67 62 58 57 56 55 54 54 54 54 53 52 52
55 59 63 67 68 68 67 67 69 73 79 85 91 97 103 109 114 118 118 114 106 98 92 87 83 78 73 70 67 62 55 47 42 43 44 44 47 47 47 46 44 41 40
59 63 66 67 66 65 66 69 74 79 85 91 97 103 109 114 115 113 107 100 93 89 84 79 74 68 63 59 53 47 41 36 30 34 39 37 41 41 41 39 35 31 28
62 65 65 64 64 66 69 74 80 86 92 98 104 109 113 113 109 102 94 87 82 76 71 66 59 53 49 45 42 37 34 32 29 32 34 32 34 35 34 30 25 21 20
64 63 62 63 66 70 75 80 85 91 97 103 110 113 111 105 97 90 84 78 70 62 55 49 45 41 39 38 36 33 30 26 25 31 33 29 28 28 25 22 18 17 19
61 60 62 65 70 75 80 85 91 96 102 108 110 107 101 93 86 80 74 66 55 47 40 37 35 35 35 35 34 30 27 24 22 27 31 29 26 23 21 19 17 16 18
58 60 65 70 74 79 85 92 97 102 106 107 103 95 87 82 76 68 61 51 42 34 30 28 29 31 32 31 30 29 28 26 25 25 28 27 24 21 18 19 17 16 19
Wind_Direction
295 294 293 292 292 293 293 293 294 295 295 293 291 288 287 285 284 282 281 279 278 278 277 278 279 279 279 278 277 275 273 270 269 268 267 266 266 265 264 263 263 263 263
294 294 294 293 293 293 293 295 296 296 295 293 291 289 287 285 284 283 282 281 280 278 277 276 276 276 276 276 276 275 274 273 272 271 270 270 270 270 270 269 268 268 267
296 296 297 297 296 295 296 297 298 296 293 291 289 286 285 284 283 283 283 283 282 281 280 279 278 278 278 278 277 276 275 275 274 274 273 272 271 271 271 271 271 270 270
295 297 300 301 301 300 301 301 300 297 294 291 288 286 285 284 283 283 283 283 283 283 284 283 283 282 282 281 280 279 278 277 276 275 274 274 273 272 272 271 271 270 270
295 297 299 300 300 300 301 302 300 297 294 291 288 286 285 285 284 284 285 285 285 285 285 285 284 284 283 282 281 280 279 277 276 275 274 273 273 272 272 271 270 270 269
294 295 297 297 297 298 299 299 297 294 292 290 289 288 288 287 287 287 287 287 287 287 286 286 286 286 286 285 283 282 281 279 278 277 276 275 274 273 272 272 271 270 269
292 295 296 296 296 297 297 297 296 294 292 291 290 291 291 291 291 291 291 291 291 291 291 291 290 290 289 288 286 285 283 282 280 279 277 276 275 274 273 273 272 271 270
294 295 296 297 297 297 297 297 296 295 293 292 292 292 292 294 295 295 295 295 294 293 292 292 291 290 288 287 286 286 285 284 283 281 280 279 277 276 274 273 271 270 269
296 296 297 298 299 299 299 298 296 295 295 295 295 296 295 294 293 293 294 294 293 293 292 291 291 290 289 289 288 287 285 284 283 282 281 279 278 277 275 274 272 270 269
294 295 297 298 299 299 299 298 298 298 298 299 300 300 299 299 298 296 294 294 294 294 294 294 294 293 292 291 290 289 288 287 286 284 283 281 279 277 275 274 272 271 269
294 296 298 298 298 299 300 300 300 301 301 300 300 300 300 300 300 300 298 297 297 297 297 297 297 296 296 295 295 294 294 293 291 289 287 285 282 280 277 275 273 271 269
295 296 297 297 297 298 300 300 301 301 301 301 301 301 301 301 300 300 300 300 300 300 300 300 300 300 300 299 299 298 297 296 294 292 290 287 284 282 279 277 274 272 269
294 295 295 296 297 297 298 299 300 301 302 302 302 303 303 303 302 302 301 301 301 301 302 302 303 302 302 301 300 299 298 296 294 292 289 287 284 282 279 277 275 272 269
293 293 294 294 295 296 298 299 301 302 304 304 304 304 303 302 302 302 302 302 302 302 302 303 303 302 301 300 299 298 297 295 293 290 287 285 283 281 279 277 274 272 269
293 293 293 294 295 297 299 301 303 304 305 305 304 303 303 302 302 303 303 304 304 304 303 303 302 301 300 300 299 297 295 292 290 288 286 285 284 282 280 278 276 272 269
293 293 294 295 297 299 301 302 304 305 306 305 304 303 303 303 304 304 305 305 305 304 304 304 302 301 301 299 298 295 293 291 290 289 289 288 286 284 282 280 276 273 269
293 294 295 297 299 301 302 304 305 306 305 304 304 304 305 305 306 306 306 305 305 305 305 305 304 302 300 298 295 294 293 292 291 291 290 289 287 285 282 279 276 273 269
294 295 296 298 300 302 304 305 306 306 306 305 305 306 307 307 308 307 307 306 307 307 306 306 304 302 299 297 295 293 291 292 292 291 290 288 286 283 280 278 275 272 269
295 296 297 300 302 304 305 307 307 307 307 307 308 308 309 309 309 309 309 309 308 308 306 305 304 303 300 298 296 294 293 293 293 292 290 287 285 283 281 279 276 274 271
296 298 300 302 304 305 307 307 308 308 309 309 310 311 311 311 311 311 311 310 309 308 306 304 303 302 301 299 298 297 297 296 294 292 290 288 286 285 283 281 279 277 273
298 300 302 304 306 307 308 308 309 310 311 312 312 313 313 314 313 313 312 311 309 308 306 305 303 301 300 300 299 300 300 299 297 293 290 290 290 290 290 289 286 282 277
301 303 305 306 307 308 309 310 310 312 313 314 314 315 315 315 315 314 312 311 310 309 307 305 303 302 301 301 303 304 305 304 301 293 293 294 295 296 296 295 292 288 285
303 305 306 307 308 309 310 311 312 314 315 315 316 316 316 316 315 313 312 311 311 310 308 306 305 304 304 305 307 310 309 308 305 297 296 299 298 299 298 296 292 293 297
305 306 307 308 309 310 311 312 314 315 316 317 318 318 317 316 315 313 313 313 313 313 311 310 308 309 310 313 316 317 317 315 310 302 303 308 306 305 302 297 296 304 311
306 307 309 309 310 311 313 314 315 316 317 318 319 318 317 317 316 315 315 316 317 317 316 314 314 317 320 322 324 326 328 328 322 311 309 311 309 310 305 300 305 314 318
308 309 309 310 312 314 315 316 317 318 319 320 320 319 318 317 317 317 318 320 322 323 321 320 320 322 325 328 331 333 334 335 332 325 319 317 310 308 303 301 310 318 322
Height
5805 5802 5799 5797 5795 5793 5791 5788 5785 5782 5779 5775 5772 5770 5767 5764 5762 5760 5757 5754 5752 5750 5748 5746 5744 5742 5739 5737 5735 5734 5732 5731 5729 5728 5727 5726 5725 5724 5723 5723 5723 5723 5723
5798 5795 5793 5791 5788 5786 5784 5781 5778 5775 5772 5768 5765 5762 5759 5757 5754 5751 5748 5745 5743 5741 5739 5736 5734 5731 5729 5726 5724 5723 5721 5720 5718 5717 5715 5714 5713 5712 5711 5711 5711 5710 5711
5791 5789 5787 5784 5782 5780 5777 5774 5771 5767 5764 5761 5758 5755 5752 5749 5746 5743 5740 5737 5734 5731 5728 5726 5723 5721 5719 5716 5714 5711 5709 5707 5705 5703 5701 5700 5699 5698 5697 5696 5696 5695 5695
5785 5783 5781 5778 5776 5773 5770 5767 5763 5760 5756 5753 5750 5746 5744 5741 5738 5734 5731 5728 5725 5722 5718 5715 5712 5709 5707 5704 5701 5699 5696 5693 5691 5688 5686 5684 5683 5682 5681 5680 5679 5679 5679
5778 5776 5774 5771 5769 5766 5762 5759 5755 5752 5749 5746 5742 5738 5735 5732 5729 5725 5722 5718 5714 5711 5707 5703 5700 5697 5693 5690 5687 5684 5681 5678 5675 5672 5669 5667 5665 5663 5661 5661 5660 5660 5660
5771 5769 5767 5764 5761 5758 5754 5750 5747 5743 5741 5738 5734 5731 5727 5724 5720 5716 5712 5707 5703 5698 5694 5690 5686 5682 5677 5674 5670 5666 5663 5660 5656 5654 5651 5648 5645 5643 5641 5639 5639 5638 5638
5764 5762 5759 5756 5753 5749 5745 5741 5737 5734 5731 5728 5725 5722 5717 5713 5709 5704 5699 5694 5690 5684 5679 5673 5668 5664 5659 5655 5650 5646 5642 5638 5634 5631 5629 5626 5623 5621 5619 5617 5615 5614 5614
5757 5754 5751 5747 5743 5739 5736 5732 5728 5724 5721 5718 5715 5713 5710 5706 5699 5693 5687 5681 5676 5670 5664 5658 5652 5647 5641 5636 5631 5626 5621 5616 5611 5607 5604 5600 5598 5595 5593 5592 5590 5588 5587
5749 5745 5742 5738 5734 5730 5726 5722 5719 5715 5711 5706 5702 5698 5695 5692 5690 5686 5679 5670 5663 5656 5649 5642 5635 5629 5622 5617 5611 5606 5600 5594 5588 5583 5578 5574 5570 5567 5564 5561 5560 5559 5558
5740 5736 5732 5728 5724 5720 5716 5713 5709 5705 5700 5695 5689 5683 5677 5671 5667 5667 5666 5657 5649 5641 5632 5624 5616 5608 5601 5595 5588 5581 5575 5568 5562 5555 5550 5544 5540 5535 5532 5529 5527 5525 5524
5731 5727 5723 5719 5715 5711 5707 5703 5698 5694 5689 5683 5678 5671 5664 5656 5646 5640 5638 5636 5630 5623 5615 5606 5596 5586 5577 5569 5561 5553 5545 5537 5529 5522 5515 5509 5504 5499 5495 5492 5490 5488 5488
5722 5718 5714 5710 5706 5702 5698 5693 5688 5682 5677 5670 5663 5656 5648 5641 5633 5624 5617 5612 5606 5601 5593 5584 5573 5561 5550 5540 5530 5520 5511 5502 5493 5485 5477 5470 5463 5457 5453 5450 5448 5447 5447
5712 5709 5705 5701 5697 5693 5688 5683 5677 5671 5664 5656 5648 5640 5631 5622 5613 5605 5597 5592 5587 5581 5572 5561 5547 5534 5521 5509 5498 5486 5477 5466 5456 5446 5437 5429 5422 5416 5412 5408 5406 5404 5404
5704 5700 5696 5692 5688 5683 5678 5672 5665 5658 5650 5641 5632 5624 5615 5606 5596 5586 5576 5567 5562 5561 5554 5542 5527 5510 5494 5479 5466 5452 5440 5428 5417 5407 5398 5391 5384 5379 5375 5372 5369 5368 5368
5695 5691 5687 5682 5677 5672 5666 5660 5652 5644 5635 5625 5616 5607 5598 5589 5579 5568 5556 5543 5532 5526 5528 5520 5502 5485 5466 5449 5432 5416 5403 5391 5380 5370 5362 5356 5351 5346 5342 5339 5337 5336 5336
5686 5682 5677 5672 5666 5660 5654 5646 5638 5629 5619 5609 5600 5591 5582 5572 5561 5549 5536 5522 5505 5491 5489 5490 5474 5456 5436 5416 5397 5380 5367 5357 5348 5340 5333 5327 5323 5318 5314 5310 5308 5306 5306
5676 5671 5666 5661 5654 5648 5640 5632 5623 5614 5604 5594 5584 5574 5564 5553 5541 5528 5514 5499 5481 5461 5447 5447 5437 5420 5402 5385 5370 5354 5340 5330 5323 5316 5309 5302 5296 5291 5287 5284 5281 5280 5280
5666 5661 5655 5649 5642 5635 5626 5617 5608 5597 5587 5578 5568 5557 5545 5533 5519 5504 5488 5472 5454 5433 5410 5398 5395 5382 5369 5356 5345 5334 5322 5310 5300 5292 5284 5277 5271 5266 5262 5260 5257 5256 5255
5655 5649 5643 5636 5629 5620 5611 5601 5591 5581 5571 5560 5549 5537 5524 5510 5495 5478 5460 5442 5423 5403 5381 5361 5353 5346 5338 5330 5320 5311 5302 5291 5279 5268 5260 5254 5248 5244 5240 5237 5235 5233 5233
5644 5637 5631 5623 5615 5605 5595 5585 5576 5566 5555 5542 5529 5515 5500 5484 5466 5449 5430 5411 5389 5371 5354 5337 5326 5318 5311 5303 5293 5284 5279 5270 5260 5249 5241 5235 5230 5225 5221 5218 5216 5214 5213
5632 5625 5617 5608 5599 5589 5579 5570 5560 5550 5537 5524 5509 5492 5475 5456 5437 5416 5395 5376 5357 5340 5326 5314 5303 5295 5287 5279 5271 5263 5257 5252 5245 5234 5227 5222 5215 5211 5206 5201 5199 5197 5196
5619 5611 5603 5593 5583 5574 5564 5554 5543 5532 5518 5503 5487 5470 5451 5430 5410 5390 5368 5349 5331 5315 5301 5290 5281 5273 5267 5260 5253 5247 5242 5237 5234 5226 5216 5212 5204 5199 5194 5190 5187 5184 5183
5606 5597 5587 5578 5568 5559 5549 5538 5525 5512 5497 5480 5462 5444 5425 5404 5381 5362 5346 5330 5315 5299 5283 5271 5263 5258 5252 5247 5242 5238 5232 5226 5221 5214 5206 5204 5197 5190 5185 5181 5178 5176 5175
5592 5582 5573 5564 5554 5544 5533 5521 5508 5494 5477 5458 5437 5416 5396 5377 5357 5339 5325 5312 5298 5284 5271 5261 5253 5247 5242 5237 5232 5227 5222 5218 5213 5204 5197 5195 5190 5183 5178 5174 5172 5171 5169
5578 5569 5559 5549 5539 5528 5515 5502 5488 5474 5456 5437 5415 5390 5368 5351 5336 5320 5306 5295 5284 5274 5264 5254 5247 5241 5236 5230 5224 5220 5216 5212 5207 5199 5191 5187 5182 5178 5173 5170 5168 5166 5164
5565 5556 5545 5534 5523 5511 5497 5482 5465 5450 5435 5417 5395 5372 5350 5333 5318 5304 5292 5283 5274 5267 5259 5252 5245 5239 5232 5227 5220 5215 5210 5206 5200 5194 5187 5180 5176 5172 5169 5166 5165 5163 5160